Location: Bęczków
(50.8761°N, 20.8028°E)
Time: 22:15:39
(UTC+01:00)

ISS - Visible Passes

Search period start: 19 January 2018 00:00
Search period end: 29 January 2018 00:00
Orbit: 402 x 407 km, 51.6° (Epoch: 20 January)

Date Brightness Start Highest point End Pass type
(mag) Time Alt. Az. Time Alt. Az. Time Alt. Az.
26 Jan -1.2 18:55:29 10° SW 18:56:11 15° SSW 18:56:11 15° SSW visible
27 Jan -2.3 18:03:37 10° SSW 18:06:11 22° SE 18:06:11 22° SE visible
28 Jan -1.6 17:12:11 10° S 17:14:03 14° SE 17:15:54 10° ESE visible
28 Jan -2.3 18:46:47 10° WSW 18:48:46 32° SW 18:48:46 32° SW visible
